Temperature
16 16 16 16 15 15 15 15 15 15 14 14 14 14 14 14 14 14 14 14 14 14 13 13 13 13 13 13 13 13 13 12 12 12 12 12 11 11 11 11 11 11 11
16 16 15 15 15 15 15 15 15 15 14 14 14 14 14 14 14 14 14 14 13 13 13 13 13 13 13 13 13 13 12 12 12 12 12 12 11 11 11 11 11 11 11
16 16 15 15 15 15 15 15 15 14 14 14 14 14 14 14 14 14 13 13 13 13 13 13 13 13 13 13 13 13 12 12 12 12 12 12 11 11 11 11 11 11 11
16 16 15 15 15 15 15 15 14 14 14 14 14 14 14 14 14 14 13 13 13 13 13 13 13 13 13 13 13 12 12 12 12 12 12 12 11 11 11 11 11 11 11
15 15 15 15 15 15 15 15 14 14 14 14 14 14 14 13 13 13 13 13 13 13 13 13 13 12 12 12 12 12 12 12 12 12 12 11 11 11 11 11 11 11 10
15 15 15 15 15 15 14 14 14 14 14 14 14 14 14 13 13 13 13 13 13 13 13 13 12 12 12 12 12 12 12 12 12 12 12 11 11 11 11 11 11 10 10
15 15 15 15 15 14 14 14 14 14 14 14 14 13 13 13 13 13 13 13 13 12 12 12 12 12 12 12 12 12 12 12 12 12 11 11 11 11 11 10 10 10 10
15 15 14 14 14 14 14 14 14 14 14 13 13 13 13 13 13 13 13 12 12 12 12 12 12 12 12 12 12 12 12 12 11 11 11 11 11 11 10 10 10 10 10
14 14 14 14 14 14 14 14 13 13 13 13 13 13 13 13 12 12 12 12 12 12 12 12 12 12 12 11 11 11 11 11 11 11 11 11 11 10 10 10 10 10 10
14 14 14 14 14 14 14 13 13 13 13 13 13 13 12 12 12 12 12 12 12 12 12 12 11 11 11 11 11 11 11 11 11 11 11 11 10 10 10 10 10 10 10
14 14 14 13 13 13 13 13 13 13 12 12 12 12 12 12 12 12 12 12 11 11 11 11 11 11 11 11 11 11 11 11 11 11 10 10 10 10 10 10 10 10 9
13 13 13 13 13 13 13 13 12 12 12 12 12 12 12 12 12 12 11 11 11 11 11 11 11 11 11 11 11 11 10 10 10 10 10 10 10 10 10 10 9 9 9
13 13 13 13 13 13 12 12 12 12 12 12 11 11 12 11 11 11 11 11 11 11 11 11 11 11 10 10 10 10 10 10 10 10 10 10 10 10 9 9 9 9 9
12 12 12 12 12 12 12 12 12 12 12 11 11 11 11 11 11 11 11 11 11 11 11 10 10 10 10 10 10 10 10 10 10 10 10 10 9 9 9 9 9 9 8
12 12 12 12 12 12 12 11 11 11 11 11 11 11 11 11 11 11 11 11 11 10 10 10 10 10 10 10 10 10 10 10 9 9 9 9 9 9 9 9 8 8 8
11 11 11 11 11 11 11 11 11 11 11 11 11 11 11 11 11 10 10 10 10 10 9 9 10 10 9 9 9 9 9 9 9 9 9 9 8 8 8 8 8 8 8
10 10 10 10 11 11 11 11 11 11 11 11 10 10 10 10 10 10 10 10 9 9 9 9 9 9 9 9 9 9 9 9 9 8 8 8 8 8 8 7 7 7 7
9 10 10 10 10 10 10 10 10 10 10 10 10 10 10 10 10 9 9 9 9 8 8 8 8 8 8 8 8 8 8 8 8 8 8 8 7 7 7 7 7 7 7
9 9 9 9 9 9 9 9 9 9 9 9 9 9 9 9 9 9 8 8 8 8 8 8 8 8 8 8 8 8 8 8 8 7 7 7 7 7 7 7 7 7 6
8 9 9 9 9 9 9 9 9 9 9 9 9 9 9 8 8 8 8 8 8 8 8 8 8 8 8 7 7 7 7 7 7 7 7 7 7 7 7 6 6 6 6
8 8 8 8 8 8 8 8 8 8 8 8 8 8 8 8 8 8 8 8 7 7 7 7 7 7 7 7 7 7 7 7 7 7 7 7 7 6 6 6 6 6 6
7 7 7 7 7 7 7 7 7 7 7 7 7 7 7 7 7 7 7 7 7 7 7 7 7 7 7 7 7 6 7 7 7 6 6 6 6 6 6 6 5 5 5
7 7 7 7 7 7 7 7 7 7 6 6 6 7 7 7 7 7 7 7 7 7 6 6 6 6 6 6 6 6 6 6 6 6 6 6 6 6 5 5 5 5 5
6 6 6 6 6 6 6 6 6 6 6 6 6 6 6 6 6 6 6 6 6 6 6 6 6 6 6 6 6 6 6 6 6 6 5 5 5 5 5 5 5 5 4
5 5 5 5 5 5 5 5 5 5 5 5 5 5 5 5 5 5 5 5 5 5 5 5 5 5 6 6 5 5 5 5 5 5 5 5 5 5 4 4 4 4 4
5 5 5 5 5 5 5 5 5 5 5 5 5 5 5 5 5 5 5 5 5 5 5 5 5 5 5 5 5 5 5 5 5 5 4 4 4 4 4 4 4 4 4
Wind_Speed
3 3 3 3 3 4 4 4 4 3 3 3 3 3 3 2 2 2 2 2 2 1 1 2 2 2 2 2 2 2 2 3 3 1 1 1 1 1 2 2 2 2 2
4 4 4 3 3 3 4 4 4 4 3 4 3 3 3 3 3 3 3 2 3 2 2 2 2 2 2 2 2 3 3 3 4 3 1 0 0 0 0 1 1 1 1
3 3 3 3 3 4 4 4 4 4 3 3 4 4 4 4 4 4 4 3 3 3 3 3 3 3 3 2 3 3 3 3 2 3 1 0 0 0 1 1 1 1 1
2 3 3 4 4 4 4 3 4 4 4 4 4 5 4 4 4 4 4 4 3 3 3 3 4 4 5 4 4 4 4 3 3 3 2 1 0 0 1 1 0 1 1
3 3 4 4 3 3 3 3 4 4 5 5 4 4 4 4 5 5 5 4 4 3 3 3 4 5 7 6 5 5 5 4 3 3 2 1 1 1 2 2 2 0 1
4 4 4 3 3 3 4 4 4 4 4 4 5 5 5 5 7 8 6 5 5 4 4 3 3 4 5 6 8 9 9 7 6 5 3 4 4 4 2 3 2 1 2
3 4 3 4 4 4 4 3 4 4 4 4 5 5 5 6 8 9 9 6 5 5 5 4 3 3 3 3 5 6 7 9 9 7 6 7 6 6 5 3 4 3 3
3 4 4 4 4 4 4 4 4 3 4 4 5 5 5 6 9 9 9 6 5 5 6 6 6 5 4 4 4 3 4 5 6 6 7 7 7 7 7 6 5 3 1
3 4 5 5 5 4 5 5 5 4 4 4 4 5 5 6 8 8 7 4 4 5 5 5 6 6 8 7 5 5 4 4 5 7 8 7 7 8 8 4 3 3 2
5 5 5 5 6 6 7 6 4 4 5 4 4 5 6 6 8 9 8 4 5 5 4 5 8 8 9 9 6 6 7 6 4 4 4 5 5 6 9 8 6 4 3
5 4 4 5 6 6 6 5 4 4 4 4 5 5 6 7 8 9 8 5 6 6 5 5 6 10 10 10 9 7 9 7 4 5 4 3 3 4 5 7 7 6 5
3 4 4 5 5 4 4 4 4 5 5 5 4 5 5 5 7 8 10 9 7 6 6 6 6 10 10 10 8 9 9 6 3 3 4 4 4 5 5 6 8 8 7
4 5 5 5 5 5 5 5 4 4 5 5 5 5 5 4 5 9 10 10 10 7 6 8 9 10 9 8 10 10 8 5 4 5 6 6 5 5 4 3 4 5 4
4 5 5 4 4 4 4 5 5 5 6 5 6 6 5 4 4 4 5 6 7 6 5 7 8 7 5 6 7 6 5 6 6 6 6 5 3 3 4 4 4 4 3
5 5 4 4 5 4 5 5 7 7 8 8 7 7 6 7 8 8 6 5 5 5 4 2 2 3 3 3 4 4 5 5 6 5 5 5 4 4 4 4 4 4 5
4 4 4 4 4 4 4 5 7 8 10 11 10 9 8 9 9 9 10 9 8 7 4 4 5 5 6 6 6 5 5 6 6 6 6 6 6 6 5 4 4 5 6
5 5 4 4 4 4 4 4 5 5 7 9 9 10 9 9 9 9 9 8 8 8 5 5 6 7 7 7 6 6 6 6 6 6 6 6 6 6 5 5 5 5 6
5 6 5 5 5 5 5 5 5 5 5 5 6 9 9 9 9 8 7 5 4 5 5 6 7 6 6 6 6 6 6 5 5 5 6 6 6 6 6 6 6 7 7
5 5 5 4 4 4 4 4 5 5 5 5 3 5 7 7 6 6 6 5 6 6 6 6 6 6 6 6 6 6 6 5 6 6 6 6 6 6 7 7 7 8 8
5 7 6 4 4 4 4 4 5 5 5 5 5 4 3 3 3 4 5 5 5 6 6 6 6 6 6 6 6 6 5 5 6 6 6 7 7 7 7 8 7 7 7
4 5 6 5 4 4 4 5 5 5 5 6 6 5 6 5 5 6 6 6 6 6 6 6 6 6 6 6 6 6 7 6 6 7 7 7 7 6 6 6 7 7 6
4 4 4 4 4 4 4 5 4 5 5 6 5 5 7 5 5 5 6 6 6 6 6 6 6 6 6 6 6 6 7 7 7 7 7 7 7 6 6 6 6 6 6
4 4 4 4 4 5 5 4 4 5 5 5 5 4 5 5 5 6 6 5 5 5 4 5 5 5 5 6 6 7 7 8 7 7 7 7 7 7 7 7 8 8 7
4 4 4 4 4 4 4 5 5 5 5 5 5 5 5 5 5 5 5 4 4 4 4 4 5 6 7 6 6 7 8 8 8 7 9 8 7 7 7 7 7 8 8
3 4 4 4 4 4 5 5 5 5 5 5 5 5 5 5 5 5 5 4 4 5 5 5 5 6 7 8 7 7 9 10 9 8 7 7 8 8 7 7 7 7 7
3 3 4 4 4 4 4 5 5 4 4 4 4 4 4 5 5 5 4 4 4 4 5 4 5 6 7 7 8 9 9 10 9 9 7 6 6 7 7 6 7 7 7
Wind_Direction
201 197 190 194 191 183 187 197 200 199 188 187 185 178 171 170 160 148 157 154 157 170 170 165 184 174 160 157 150 148 150 146 167 247 289 313 49 27 44 65 67 85 71
201 193 193 191 182 187 200 205 198 197 200 198 187 181 185 182 173 168 174 166 168 180 188 169 193 168 159 156 154 162 163 161 162 189 240 300 289 257 67 57 56 82 88
189 183 181 184 192 202 207 205 198 195 202 200 191 193 193 189 185 187 181 178 181 192 191 188 199 169 182 175 164 167 170 161 153 163 191 182 349 41 67 39 48 48 46
181 181 189 203 207 207 203 198 201 196 197 204 205 206 202 194 190 188 183 185 190 199 202 201 202 195 197 187 181 179 168 155 146 146 167 178 206 291 137 182 344 347 296
188 198 212 213 205 200 202 201 205 203 205 202 202 206 203 199 200 190 189 191 190 203 216 219 219 216 210 197 190 182 170 166 159 163 178 175 202 191 210 202 194 244 287
200 214 215 202 199 207 213 205 204 210 209 198 205 207 210 222 217 206 196 193 194 199 215 229 234 235 227 213 202 190 181 178 182 181 191 201 216 209 192 182 174 168 268
211 220 215 208 210 219 217 208 213 216 210 209 214 214 221 227 224 217 209 197 198 206 211 215 226 227 223 210 210 205 206 205 198 188 195 209 206 202 182 188 199 201 218
224 223 222 213 219 221 214 219 226 220 216 217 218 218 226 239 230 224 217 204 206 214 215 213 213 220 214 199 196 202 219 225 217 206 208 216 211 195 187 191 194 190 233
238 233 225 215 217 217 223 228 225 217 222 226 221 214 223 246 238 227 213 195 210 224 227 221 215 217 224 205 192 203 223 242 231 218 221 222 216 200 177 149 152 162 228
246 243 231 216 215 219 226 228 223 217 221 224 234 224 221 235 238 229 214 198 212 228 233 230 227 223 226 210 201 204 217 231 218 214 222 227 213 201 190 186 185 184 195
255 254 241 224 221 223 225 223 220 217 216 221 233 240 233 234 237 231 218 206 210 219 226 231 232 228 230 225 216 214 226 221 206 205 215 220 210 204 204 203 198 193 197
259 258 254 242 234 230 218 221 215 210 215 226 233 247 247 239 234 233 225 225 220 215 227 231 234 230 229 227 225 228 231 220 196 197 211 223 224 223 220 215 213 214 217
270 263 260 254 241 227 215 216 215 211 216 228 229 239 249 245 238 235 232 231 229 229 232 230 234 234 232 232 231 229 224 211 202 213 222 228 227 222 211 207 212 217 231
266 267 263 257 255 242 225 216 213 215 219 226 231 239 246 246 241 233 229 231 231 236 239 239 238 238 235 234 237 234 221 212 211 219 225 229 221 212 211 203 207 205 218
265 267 269 260 246 243 235 226 221 222 218 222 228 228 229 241 242 230 222 221 216 221 213 227 225 222 230 235 234 231 222 212 217 219 219 222 221 219 223 208 202 200 211
269 269 263 262 253 244 245 261 246 237 238 234 232 231 236 240 241 234 232 231 224 212 202 217 226 227 228 229 229 229 226 221 218 215 218 220 221 222 224 217 208 209 222
254 262 263 260 255 248 243 244 264 270 253 243 238 237 238 241 238 234 232 228 221 207 217 224 228 228 231 229 229 228 229 225 215 213 218 222 223 224 223 223 220 222 228
262 262 261 257 252 247 245 244 244 246 257 258 248 242 242 244 242 235 225 214 224 218 226 228 231 230 229 229 230 231 230 223 216 217 221 224 223 223 224 226 224 226 230
264 267 263 260 255 251 250 247 246 244 247 255 260 250 242 239 237 227 205 212 221 227 229 231 232 229 229 229 231 229 224 223 218 215 219 223 225 225 228 228 228 229 230
266 269 272 269 262 255 251 248 248 247 247 247 247 245 229 219 228 225 221 225 226 230 230 232 233 231 228 227 228 224 222 226 222 221 223 223 224 225 229 228 228 231 233
271 271 272 274 263 257 253 248 247 245 245 246 247 239 221 222 226 227 227 229 231 233 232 232 233 231 229 227 224 224 224 229 225 222 223 224 223 227 230 228 229 232 234
265 267 265 263 263 259 260 255 249 246 246 247 253 246 233 231 232 234 235 237 235 235 233 229 230 229 228 225 222 223 227 230 229 224 226 226 226 228 231 231 231 230 231
268 269 274 273 267 265 265 260 253 249 251 251 247 243 237 238 240 240 241 240 239 238 234 231 233 236 231 226 221 221 226 229 228 222 222 225 226 226 229 232 233 232 231
273 268 270 273 272 268 264 262 257 252 249 249 246 242 240 242 244 245 246 246 246 248 241 234 234 236 232 231 229 227 227 228 225 222 218 222 224 226 227 231 233 232 231
291 281 277 274 271 269 269 269 264 259 254 249 247 246 244 243 246 250 250 249 245 246 247 242 237 233 229 230 232 232 230 229 228 225 216 217 219 220 224 230 233 231 231
310 303 296 289 282 276 270 269 267 262 256 255 254 253 250 246 248 250 250 250 248 252 254 247 238 237 237 236 235 232 229 228 225 223 216 214 216 221 220 227 230 229 229
Height
1535 1536 1537 1538 1538 1539 1540 1541 1541 1542 1543 1543 1543 1543 1543 1544 1544 1544 1544 1544 1545 1545 1545 1546 1546 1546 1547 1547 1547 1547 1547 1547 1547 1548 1548 1548 1548 1548 1548 1547 1547 1546 1546
1533 1534 1535 1536 1536 1537 1537 1538 1539 1540 1540 1541 1541 1541 1541 1542 1542 1542 1542 1542 1543 1543 1543 1544 1544 1544 1545 1545 1545 1545 1545 1545 1546 1546 1546 1547 1547 1547 1547 1546 1546 1545 1545
1531 1531 1532 1533 1533 1534 1535 1536 1536 1537 1538 1538 1539 1539 1539 1540 1540 1540 1540 1540 1541 1541 1541 1541 1542 1542 1542 1542 1543 1543 1543 1544 1544 1544 1544 1545 1545 1545 1545 1545 1544 1544 1544
1528 1529 1529 1530 1531 1531 1532 1533 1533 1534 1535 1535 1536 1536 1537 1537 1537 1538 1538 1538 1538 1538 1538 1539 1539 1539 1540 1540 1540 1541 1541 1541 1542 1542 1542 1543 1543 1543 1543 1543 1543 1542 1542
1526 1526 1527 1527 1528 1529 1529 1530 1530 1531 1531 1532 1533 1533 1534 1534 1535 1535 1535 1535 1536 1536 1536 1536 1536 1537 1537 1537 1538 1538 1539 1539 1539 1539 1540 1540 1540 1540 1541 1540 1540 1540 1540
1523 1523 1524 1524 1525 1525 1526 1526 1527 1527 1528 1528 1529 1530 1530 1531 1532 1532 1532 1532 1533 1533 1533 1533 1533 1534 1534 1534 1535 1535 1536 1536 1536 1537 1537 1537 1537 1538 1538 1538 1538 1537 1537
1520 1520 1521 1521 1521 1522 1522 1523 1523 1523 1524 1524 1525 1526 1526 1527 1528 1529 1529 1529 1529 1530 1530 1530 1530 1531 1531 1531 1532 1532 1532 1533 1533 1534 1534 1534 1534 1535 1535 1535 1535 1535 1535
1516 1517 1517 1518 1518 1518 1519 1519 1519 1519 1520 1520 1521 1521 1522 1523 1524 1525 1525 1525 1526 1526 1526 1527 1527 1527 1528 1528 1528 1528 1529 1529 1530 1530 1530 1531 1531 1531 1532 1532 1532 1532 1532
1513 1513 1514 1514 1514 1514 1514 1515 1515 1515 1515 1516 1516 1517 1518 1518 1520 1520 1521 1521 1521 1522 1522 1522 1523 1523 1524 1524 1524 1524 1525 1525 1526 1526 1527 1527 1527 1528 1528 1528 1528 1528 1528
1510 1510 1510 1510 1510 1510 1510 1510 1510 1511 1511 1511 1512 1512 1513 1514 1515 1515 1516 1516 1516 1517 1517 1518 1518 1519 1519 1520 1520 1520 1520 1521 1521 1522 1522 1523 1523 1524 1524 1524 1524 1524 1524
1506 1506 1506 1506 1505 1505 1505 1505 1506 1506 1506 1506 1507 1507 1508 1508 1509 1510 1511 1511 1511 1512 1512 1512 1513 1514 1514 1515 1515 1515 1515 1516 1516 1517 1517 1518 1518 1519 1519 1519 1519 1520 1520
1502 1501 1501 1501 1501 1501 1500 1500 1500 1500 1501 1501 1501 1502 1502 1503 1504 1504 1505 1506 1506 1507 1507 1507 1508 1509 1509 1509 1510 1510 1510 1511 1511 1511 1512 1512 1513 1513 1514 1514 1515 1515 1515
1497 1496 1496 1496 1496 1495 1495 1495 1495 1495 1495 1495 1496 1496 1496 1497 1498 1498 1499 1500 1500 1501 1501 1502 1502 1503 1503 1503 1504 1504 1505 1505 1505 1505 1505 1506 1507 1508 1509 1509 1510 1510 1510
1492 1491 1491 1490 1490 1490 1490 1489 1489 1489 1489 1490 1490 1490 1490 1491 1492 1492 1493 1494 1494 1495 1495 1495 1496 1496 1496 1497 1497 1498 1498 1498 1499 1499 1500 1501 1502 1502 1503 1503 1504 1504 1504
1487 1486 1486 1485 1485 1484 1484 1483 1483 1483 1484 1484 1484 1484 1484 1484 1485 1486 1486 1487 1487 1488 1489 1489 1489 1489 1489 1490 1490 1491 1491 1492 1492 1493 1493 1494 1495 1496 1496 1497 1498 1498 1498
1481 1481 1480 1479 1479 1478 1478 1477 1477 1478 1478 1478 1479 1479 1478 1479 1480 1480 1481 1481 1482 1482 1482 1482 1482 1482 1482 1483 1483 1484 1484 1485 1486 1486 1487 1488 1489 1489 1490 1491 1491 1492 1492
1476 1475 1474 1473 1472 1472 1471 1471 1470 1470 1471 1471 1472 1472 1473 1473 1473 1473 1474 1474 1475 1475 1475 1475 1475 1475 1476 1476 1477 1477 1478 1479 1479 1480 1481 1482 1483 1483 1484 1485 1485 1485 1485
1470 1469 1468 1467 1466 1466 1465 1464 1464 1463 1463 1463 1465 1465 1466 1466 1466 1467 1467 1467 1467 1468 1468 1468 1468 1469 1469 1469 1470 1471 1471 1472 1473 1474 1475 1476 1476 1477 1477 1478 1479 1479 1479
1464 1463 1462 1461 1460 1459 1459 1458 1457 1457 1456 1456 1457 1458 1459 1459 1459 1460 1460 1460 1459 1460 1460 1461 1461 1462 1462 1463 1463 1464 1465 1465 1466 1467 1468 1469 1470 1471 1471 1471 1472 1473 1473
1458 1457 1457 1455 1454 1453 1452 1452 1451 1450 1450 1449 1449 1450 1451 1451 1451 1451 1452 1452 1452 1452 1453 1453 1454 1455 1455 1456 1457 1457 1458 1458 1459 1460 1461 1462 1463 1464 1464 1464 1465 1466 1466
1452 1451 1451 1449 1448 1447 1446 1445 1444 1444 1443 1442 1442 1443 1444 1444 1444 1444 1444 1444 1445 1445 1445 1446 1447 1447 1448 1449 1449 1450 1451 1451 1452 1453 1454 1455 1456 1457 1457 1458 1458 1459 1460
1447 1446 1445 1443 1442 1441 1440 1439 1438 1437 1436 1436 1436 1436 1437 1437 1437 1437 1437 1437 1438 1438 1439 1439 1439 1440 1441 1442 1442 1443 1444 1444 1445 1446 1447 1448 1449 1450 1450 1451 1451 1452 1453
1442 1440 1439 1438 1437 1435 1434 1433 1432 1431 1430 1429 1429 1429 1430 1429 1430 1430 1430 1430 1431 1431 1432 1432 1432 1433 1434 1435 1436 1436 1437 1437 1438 1439 1440 1441 1441 1442 1443 1443 1444 1445 1445
1436 1435 1433 1432 1431 1429 1428 1427 1426 1425 1424 1423 1423 1423 1423 1423 1423 1423 1423 1424 1424 1424 1425 1425 1425 1426 1427 1427 1428 1428 1429 1430 1431 1432 1432 1433 1434 1435 1435 1436 1437 1437 1438
1431 1430 1428 1427 1425 1424 1422 1421 1420 1419 1418 1417 1417 1417 1416 1416 1416 1416 1416 1417 1417 1417 1417 1418 1418 1418 1419 1419 1420 1421 1422 1423 1424 1424 1425 1425 1426 1427 1428 1429 1429 1430 1431
1426 1425 1423 1422 1420 1419 1417 1415 1414 1413 1412 1412 1411 1411 1410 1410 1410 1410 1410 1410 1410 1410 1410 1410 1411 1411 1411 1412 1412 1413 1414 1415 1416 1417 1418 1418 1418 1419 1420 1421 1422 1422 1423